カタログに戻る

ICO G-1

運用中通信GEO
NORAD 32763·PAYLOAD·🇺🇸 United States

打ち上げ Apr 14, 2008 から Cape Canaveral Space Force Station

Loading…

TLE

最新Source: Space-Track

元期: Sep 14, 2026, 11:48 UTC

1 32763U 08016A   26257.49180979 -.00000179  00000-0  00000-0 0  9993
2 32763   5.5419  35.8494 0002448 129.1946 272.6369  1.00275369 67449

AllMySatでICO G-1をリアルタイム追跡

Download on the App Store